www.pogodaiklimat.ru

Погода и климат >> Архив погоды >> Канада >> Chris Hadfield


ПОГОДА в Chris Hadfield

  • Прогноз погоды в Chris Hadfield
  • Монитор погоды в Chris Hadfield
  • Климат города

АРХИВ ПОГОДЫ в Chris Hadfield

Время (UTC), дата Ветер
(напр.,м/с)
 
Видим.   Явления Облачность Т
(С)
Тd
(С)
f
(%)
Тe
(С)
Тes
(С)
Комфортность P
(гПа)
Po
(гПа)
Тmin
(С)
Tmax
(С)
R
(мм)
R24
(мм)
S
(см)
00 14.09 С 3 9000 м дымка 10/10 600 м
[]
+19.9 +19.3 96 +24 +24 комфорт 1021.3 999.6 +13.0 +22.7
03 14.09 С 2 14 км 9/9 300 м
[]
+18.8 +18.2 96 +21 +21 комфорт 1021.4 999.8
06 14.09 СЗ 1 11 км 3/3 1000 м
[]
+18.5 +18.2 98 +21 +21 комфорт 1020.7 999.1 +13.0 +22.7
09 14.09 СВ 1 9000 м дымка 9/9 600 м
[]
+17.5 +17.3 99 +19 +19 1020.6 999.0
12 14.09 В 1 16 км 10/10 200 м
[]
+19.3 +18.4 95 +23 +23 комфорт 1021.4 999.8 +16.5 +22.7
15 14.09 СЗ 2 16 км 10/10 300 м
[]
+21.4 +19.6 89 +26 +26 душно 1021.5 999.9
18 14.09 С 3 16 км 10/10 300 м
[]
+23.1 +20.2 84 +30 +30 очень
душно
1020.9 999.3 +16.5 +23.4
21 14.09 СВ 3 16 км 3/3 1000 м
[]
+24.1 +20.9 82 +30 +31 очень
душно
1020.1 998.5
00 15.09 С 2 3600 м дымка ясно +20.1 +19.6 97 +24 +25 комфорт 1020.2 998.6 +16.5 +24.7
03 15.09 СВ 2 1200 м дымка 10/10 50 м
[]
+19.9 +19.7 99 +24 +24 комфорт 1021.4 999.8
06 15.09 С 3 100 м туман н/о +19.3 +19.1 99 +22 +22 комфорт 1021.0 999.4 +16.5 +24.7
09 15.09 СВ 1 300 м туман н/о +18.8 +18.6 99 +21 +21 комфорт 1021.3 999.7
12 15.09 СВ 3 <100 м туман н/о +19.3 +19.3 100 +22 +22 комфорт 1022.5 1000.8 +18.7 +24.7
15 15.09 С 3 300 м туман н/о +19.9 +19.7 99 +23 +23 комфорт 1023.1 1001.4
18 15.09 С 4 11 км 10/10 50 м
[]
+21.7 +20.7 94 +28 +28 душно 1022.7 1001.1 +18.7 +21.7
21 15.09 С 4 16 км 5/5 100 м
[]
+22.6 +20.9 90 +30 +30 очень
душно
1021.4 999.8
00 16.09 С 2 11 км ясно +19.8 +19.3 97 +24 +24 комфорт 1021.6 1000.0 +18.7 +23.1
03 16.09 С 2 4000 м дымка ясно +18.8 +18.6 99 +21 +21 комфорт 1022.5 1000.8
06 16.09 С 3 8000 м дымка ясно +18.5 +18.2 98 +20 +20 1021.9 1000.3 +18.2 +23.1
09 16.09 В 1 3200 м дымка {осадки} 3/3 100 м
[]
+18.0 +17.8 99 +20 +20 1022.0 1000.4
12 16.09 В 1 2400 м дымка {осадки} 9/9 50 м
[]
+17.0 +16.8 99 +18 +18 1022.7 1001.0 +15.1 +23.1 0.3
15 16.09 В 2 16 км ясно +25.6 +22.0 81 +33 +33 очень
душно
1022.6 1001.0
18 16.09 СВ 4 16 км 9/9 1000 м
[]
+24.4 +21.2 82 +31 +31 очень
душно
1021.2 999.6 +15.1 +26.7
21 16.09 СВ 4 16 км 5/5 1000 м
[]
+25.1 +21.3 79 +32 +32 очень
душно
1018.9 997.4
00 17.09 ЮВ 3 16 км ясно +23.0 +18.2 74 +29 +29 очень
душно
1018.6 997.0 +15.1 +27.5
03 17.09 В 1 16 км ясно +18.4 +17.1 92 +20 +20 1018.5 997.0
06 17.09 Ю 2 16 км ясно +19.7 +18.9 95 +23 +23 комфорт 1017.2 995.7 +15.1 +27.5
09 17.09 ЮВ 2 16 км ясно +18.7 +18.1 96 +20 +20 1015.9 994.5
12 17.09 Ю 3 16 км ясно +19.1 +18.3 95 +21 +21 комфорт 1015.9 994.4 +18.1 +27.5
15 17.09 Ю 3 16 км 9/0
[]
+25.2 +20.6 76 +31 +32 очень
душно
1015.1 993.7
18 17.09 С 4 14 км 9/9 1000 м
[]
+26.4 +20.9 72 +33 +33 очень
душно
1013.3 992.0 +18.1 +27.7
21 17.09 С 3 16 км ясно +27.3 +20.5 66 +34 +34 очень
душно
1011.4 990.1
00 18.09 Ю 3 16 км ясно +23.9 +19.4 76 +29 +29 душно 1011.5 990.1 +18.3 +27.7
03 18.09 Ю 3 16 км ясно +20.4 +19.1 92 +25 +25 комфорт 1012.0 990.7
06 18.09 ЮЗ 3 11 км ясно +19.8 +19.2 96 +23 +23 комфорт 1011.7 990.4 +18.3 +27.7
09 18.09 С 3 16 км ясно +19.7 +18.9 95 +23 +23 комфорт 1011.6 990.3
12 18.09 С 3 16 км 10/10 300 м
[]
+19.7 +18.7 94 +23 +23 комфорт 1013.0 991.6 +18.7 +27.7
15 18.09 С 5 16 км 10/10 300 м
[]
+20.5 +18.2 87 +24 +24 комфорт 1013.8 992.4
18 18.09 СВ 5 16 км ясно +21.6 +17.7 78 +26 +26 душно 1013.2 991.8 +18.7 +21.6
21 18.09 С 6 16 км 5/5 300 м
[]
+20.5 +17.9 85 +24 +24 комфорт 1013.0 991.6
00 19.09 С 4 16 км 10/10 300 м
[]
+18.3 +16.3 88 +19 +19 1014.2 992.7 +18.2 +21.8
03 19.09 СВ 4 16 км 10/10 300 м
[]
+17.5 +15.5 88 +17 +17 1014.5 993.0
06 19.09 С 3 16 км слаб. дождь 10/0
[]
+16.8 +15.3 91 +17 +17 1015.0 993.5 +16.7 +21.8 17
09 19.09 С 5 16 км 10/10 600 м
[]
+17.6 +15.3 86 +17 +17 1015.7 994.2
12 19.09 СВ 4 16 км 10/10 300 м
[]
+17.1 +14.5 85 +17 +17 1018.0 996.4 +16.7 +21.8
15 19.09 СВ 3 16 км 10/10 600 м
[]
+19.0 +13.2 69 +20 +20 1018.6 997.0
18 19.09 С 5 16 км ясно +20.5 +13.6 65 +23 +23 комфорт 1018.9 997.3 +16.5 +20.7
21 19.09 С 5 16 км ясно +19.7 +14.1 70 +21 +22 комфорт 1018.2 996.6
00 20.09 СВ 3 16 км 9/0
[]
+16.5 +14.0 85 +16 +16 1019.0 997.3 +16.5 +20.7
03 20.09 В 2 16 км 10/0
[]
+15.9 +13.4 85 +16 +16 1019.1 997.4
06 20.09 Ю 1 16 км 10/0
[]
+15.0 +13.2 89 +16 +16 1018.5 996.9 +15.0 +20.7
09 20.09 СВ 1 16 км 10/0
[]
+14.9 +13.5 91 +16 +16 1019.1 997.4
12 20.09 ЮВ 2 16 км 9/0
[]
+15.8 +14.2 90 +16 +16 1019.6 997.9 +13.3 +20.7
15 20.09 ЮВ 5 16 км 9/9 1000 м
[]
+17.2 +15.8 91 +17 +17 1019.9 998.2
18 20.09 ЮВ 2 16 км слаб. дождь {осадки} 9/9 1000 м
[]
+19.5 +17.4 88 +22 +22 комфорт 1019.8 998.1 +13.3 +19.5 1
21 20.09 Ю 5 16 км {осадки} 9/9 300 м
[]
+22.2 +20.0 87 +28 +28 душно 1016.0 994.4

 

Местоположение метеостанции Chris Hadfield (Канада): широта 79.78 долгота -103.50 высота над уровнем моря 58 м.

В архиве по умолчанию представлена погода в Chris Hadfield за последнюю неделю. Архивные данные за месяц целиком и за предыдущие месяцы, начиная с января 2011 года, Вы можете получить, выбрав интересующий диапазон дат из раскрывающегося списка и нажав кнопку "Ввод!".


*Определитесь, кто Вы:
робот инопланетянин человек

Внимание! Время в таблицах - всемирное. Для получения местного времени необходимо прибавить поправку, которая в Chris Hadfield равна -7 ч.

Смотрите также архив погоды в соседних городах и на ближайших метеорологических станциях:

Погода в Isachsen (aut) (Канада) (111 км)
Погода в Eureka Climate (Канада) (343 км)
Погода в Eureka (Канада) (343 км)
Погода в Mould Bay Cs (Канада) (534 км)
Погода в Resolute Airport (Канада) (599 км)
Погода в Resolute Cs (Канада) (599 км)
Погода в Stefansson Island (Канада) (670 км)
Погода в Aulvik Ntl Park (Канада) (745 км)
Погода в Alert Climate (Канада) (747 км)
Погода в Kitsissut (Гренландия) (765 км)

Пояснения к столбцам:

Ветер - указаны скорость ветра в м/с - средняя за 10 мин, порывы в срок и между сроками (в фигурных скобках) и направление, откуда дует ветер: С - северный, СВ - северо-восточный, В - восточный, ЮВ - юго-восточный, Ю - южный, ЮЗ - юго-западный, З - западный, СЗ - северо-западный.
Видимость - горизонтальная дальность видимости в метрах или километрах. При видимости от 1 до 10 км при отсутствии осадков обычно наблюдается дымка, при ухудшении видимости до 1 км и менее - туман. В сухую погоду видимость может ухудшаться дымом, пылью или мглою.
Явления - указаны атмосферные явления, наблюдавшиеся в срок или в последний час перед сроком; фигурными скобками обозначены явления, наблюдавшиеся между сроками (за 1-3 часа до срока); квадратными скобками обозначены град или гололедные отложения с указанием их диаметра в мм.
Облачность - указаны через наклонную черту общая и нижняя облачность в баллах и высота нижней границы облаков в метрах; квадратными скобками обозначены формы облаков: Ci - перистые, Cs - перисто-слоистые, Cc - перисто-кучевые, Ac - высококучевые, As - высокослоистые, Sc - слоисто-кучевые, Ns - слоисто-дождевые, Cu - кучевые, Cb - кучево-дождевые. Подробнее классификацию облаков см. в Атласе облаков (PDF).
T - Температура воздуха - температура, измеренная на высоте 2 м над землей.
Td - Температура точки росы - температура, при понижении до которой содержащийся в воздухе водяной пар достигнет насыщения.
f - Относительная влажность воздуха - влажноcть воздуха, измеренная на высоте 2 м над землей.
Te - Эффективная температура - температура, которую ощущает одетый по сезону человек в тени. Характеристика душности погоды. При расчете учитывается влияние влажности воздуха и скорости ветра на теплоощущения человека.
Tes - Эффективная температура на солнце - температура, которую ощущает человек, с поправкой на солнечный нагрев. Характеристика знойности погоды. Зависит от высоты солнца над горизонтом, облачности и скорости ветра. Ночью, в пасмурную погоду, а также при ветре 12 м/с и более поправка равна нулю.
P - Атмосферное давление - приведенное к уровню моря атмосферное давление.
Po - Атмосферное давление - измеренное на уровне метеостанции атмосферное давление.
Tmin - Минимальная температура - минимум температуры воздуха на высоте 2 м над землей.
Tmax - Максимальная температура - максимум температуры воздуха на высоте 2 м над землей.
R - Количество осадков - Количество выпавших осадков за период времени, мм. При наведении курсора мыши на число - период времени, за который выпало указанное количество осадков.
R24 - Количество осадков - Количество выпавших осадков за 24 часа, мм.
S - Снежный покров - Высота снежного покрова, см. При наведении курсора мыши на число - состояние снежного покрова и степень покрытия местности в баллах.